Weather in Selitrennoye

Russia / Astrakhan Oblast     47˚10′04″N   47˚27′09″E
temp.,
°C
wind,
m/s
gust,
m/s
humid.,
%
clouds,
%
prec.,
mm/h
press.,
hPa
HPBL,
m
17 january, sun
sun1701:00−5˚wnw23773 0.0 101866
04:00−6˚nw23809 0.0 101753
07:00−7˚nne238246 0.0 101655
10:00−5˚ne457369 0.0 1015269
13:00−3˚ne5764100 0.0 1014355
16:00−3˚ne6960100 0.0 1012373
19:00−5˚ne61064100 0.0 1011357
22:00−5˚ne71170100 0.0 1011346
18 january, mon
mon1801:00−5˚ne81367100 0.0 1010404
04:00−5˚ne81268100 0.0 1008442
07:00−5˚ne81270100 0.0 1007475
10:00−5˚ne6875100 0.0 1008437
13:00−5˚n5677100 0.0 1008421
16:00−6˚nnw5784100 0.2 1008403
19:00−8˚nw6985100 0.0 1010412
22:00−9˚nw7983100 0.1 1012482
19 january, tue
tue1901:00−10˚nw71083100 0.0 1014438
04:00−11˚nw6984100 0.0 1015351
07:00−12˚nw588696 0.0 1016292
10:00−11˚nw698280 0.0 1019229
13:00−8˚wnw457292 0.0 1018368
16:00−7˚w347193 0.0 1018393
19:00−9˚w23830 0.0 101950
22:00−9˚s238417 0.0 102042
20 january, wed
wed2001:00−8˚s2277100 0.0 101931
04:00−7˚w3686100 0.0 1020130
07:00−9˚w479381 0.0 1021194
10:00−10˚wnw458389 0.0 1023298
13:00−9˚wnw576566 0.0 1023597
16:00−9˚wnw576733 0.0 1023640
19:00−11˚wnw368011 0.0 1025311
22:00−12˚wnw37876 0.0 1026334
21 january, thu
thu2101:00−13˚wnw698199 0.0 1026572
04:00−15˚wnw588289 0.0 1027489
07:00−16˚nw698126 0.0 1029393
10:00−16˚wnw577713 0.0 1031339
13:00−12˚wnw57650 0.0 1031421
16:00−11˚wnw56640 0.0 1032422
19:00−13˚wnw35800 0.0 1033168
22:00−13˚w33880 0.0 103486